Weather History for Platteville, WI

Change the Weather History Date:

Monday, January 21, 2013

  Actual Average (KDBQ) Record (KDBQ)
Temperature  
Mean Temperature 5 °F 19 °F  
Max Temperature 10 °F 27 °F 54 °F (1921)
Min Temperature 0 °F 11 °F -28 °F (1970)
Degree Days  
Heating Degree Days 60 46  
Month to date heating degree days 966  
Since 1 July heating degree days 3776  
Cooling Degree Days 0 0  
Month to date cooling degree days 0  
Year to date cooling degree days 0  
Moisture  
Dew Point -7 °F    
Average Humidity 61    
Maximum Humidity 73    
Minimum Humidity 51    
Precipitation  
Precipitation 0.00 in 0.03 in 0.80 in (1999)
Month to date precipitation 0.78  
Year to date precipitation 0.78  
Snow  
Snow 0.00 in 0.30 in - ()
Month to date snowfall 6.6  
Since 1 July snowfall 21.2  
Snow Depth -    
Sea Level Pressure  
Sea Level Pressure 30.22 in    
Wind  
Wind Speed 15 mph (WNW)    
Max Wind Speed 24 mph    
Max Gust Speed 29 mph    
Visibility 10 miles    
Events      
T = Trace of Precipitation, MM = Missing Value Source: NWS Daily Summary

Daily Weather History Graph

Daily Weather History Graph

Search for Another Location

Airport:

Trip Planner

Search our weather history database for the weather conditions in past years. The results will help you decide how hot, cold, wet, or windy it might be!

Date:

Astronomy

Jan. 21, 2013 Rise Set
Actual Time 7:25 AM CST 5:01 PM CST
Civil Twilight 6:54 AM CST 5:32 PM CST
Nautical Twilight 6:20 AM CST 6:06 PM CST
Astronomical Twilight 5:46 AM CST 6:40 PM CST
Moon 12:40 PM CST (1/21) 2:54 AM CST (1/21)
Length of Visible Light 10h 37m
Length of Day
9h 35m
Waxing Gibbous, 75% of the Moon is Illuminated
Jan 21
Waxing Gibbous
Jan 26
Full
Feb 3
Last Quarter
Feb 10
New
Feb 17
First Quarter

Hourly Weather History & Observations

Time (CST) Temp. Windchill Dew Point Humidity Pressure Visibility Wind Dir Wind Speed Gust Speed Precip Events Conditions
12:15 AM 10.4 °F -7.2 °F 3.2 °F 73% 30.19 in 10.0 mi West 17.3 mph 21.9 mph N/A   Overcast
12:35 AM 10.4 °F -4.1 °F 1.4 °F 67% 30.18 in 10.0 mi West 11.5 mph 16.1 mph N/A   Mostly Cloudy
12:55 AM 10.4 °F -4.1 °F 1.4 °F 67% 30.17 in 10.0 mi West 11.5 mph - N/A   Scattered Clouds
1:15 AM 10.4 °F -3.3 °F 1.4 °F 67% 30.18 in 10.0 mi West 10.4 mph - N/A   Mostly Cloudy
1:35 AM 10.4 °F -4.8 °F -0.4 °F 62% 30.18 in 10.0 mi West 12.7 mph 23.0 mph N/A   Scattered Clouds
1:55 AM 8.6 °F -6.3 °F -0.4 °F 67% 30.18 in 10.0 mi West 11.5 mph - N/A   Clear
2:15 AM 8.6 °F -5.5 °F -0.4 °F 67% 30.17 in 10.0 mi WNW 10.4 mph 17.3 mph N/A   Clear
2:35 AM 8.6 °F -7.0 °F -0.4 °F 67% 30.17 in 10.0 mi West 12.7 mph 19.6 mph N/A   Clear
2:55 AM 6.8 °F -12.4 °F -5.8 °F 56% 30.17 in 10.0 mi West 18.4 mph 27.6 mph N/A   Clear
3:15 AM 5.0 °F -13.6 °F -4.0 °F 66% 30.17 in 10.0 mi West 16.1 mph 24.2 mph N/A   Clear
3:35 AM 5.0 °F -14.2 °F -5.8 °F 61% 30.16 in 10.0 mi West 17.3 mph 27.6 mph N/A   Clear
3:55 AM 5.0 °F -13.0 °F -5.8 °F 61% 30.16 in 10.0 mi West 15.0 mph 24.2 mph N/A   Scattered Clouds
4:15 AM 5.0 °F -10.0 °F -5.8 °F 61% 30.17 in 10.0 mi West 10.4 mph 21.9 mph N/A   Clear
4:35 AM 3.2 °F -15.3 °F -5.8 °F 66% 30.16 in 10.0 mi West 15.0 mph 25.3 mph N/A   Clear
4:55 AM 3.2 °F -15.9 °F -5.8 °F 66% 30.16 in 10.0 mi West 16.1 mph 21.9 mph N/A   Clear
5:15 AM 3.2 °F -15.3 °F -5.8 °F 66% 30.16 in 10.0 mi West 15.0 mph 21.9 mph N/A   Clear
5:35 AM 3.2 °F -15.9 °F -7.6 °F 61% 30.17 in 10.0 mi West 16.1 mph 23.0 mph N/A   Clear
5:55 AM 1.4 °F -18.2 °F -7.6 °F 66% 30.18 in 10.0 mi West 16.1 mph 23.0 mph N/A   Clear
6:15 AM 1.4 °F -18.8 °F -7.6 °F 66% 30.19 in 10.0 mi West 17.3 mph 21.9 mph N/A   Mostly Cloudy
6:55 AM -0.4 °F -19.2 °F -7.6 °F 72% 30.19 in 7.0 mi West 13.8 mph 21.9 mph N/A   Mostly Cloudy
7:15 AM -0.4 °F -19.2 °F -7.6 °F 72% 30.20 in 7.0 mi WNW 13.8 mph 23.0 mph N/A   Mostly Cloudy
7:35 AM -0.4 °F -19.9 °F -9.4 °F 66% 30.20 in 10.0 mi West 15.0 mph 18.4 mph N/A   Scattered Clouds
7:55 AM -0.4 °F -20.5 °F -9.4 °F 66% 30.21 in 10.0 mi WNW 16.1 mph 20.7 mph N/A   Clear
8:15 AM -0.4 °F -20.5 °F -9.4 °F 66% 30.22 in 10.0 mi West 16.1 mph 24.2 mph N/A   Clear
8:35 AM -0.4 °F -19.2 °F -11.2 °F 60% 30.22 in 10.0 mi WNW 13.8 mph 20.7 mph N/A   Clear
8:55 AM -0.4 °F -20.5 °F -11.2 °F 60% 30.23 in 10.0 mi WNW 16.1 mph - N/A   Clear
9:15 AM 1.4 °F -18.2 °F -11.2 °F 56% 30.23 in 10.0 mi WNW 16.1 mph 21.9 mph N/A   Clear
9:35 AM 1.4 °F -18.2 °F -9.4 °F 61% 30.24 in 10.0 mi WNW 16.1 mph 20.7 mph N/A   Clear
9:55 AM 1.4 °F -16.9 °F -11.2 °F 56% 30.25 in 10.0 mi WNW 13.8 mph - N/A   Clear
10:15 AM 1.4 °F -18.2 °F -9.4 °F 61% 30.25 in 10.0 mi West 16.1 mph 20.7 mph N/A   Clear
10:35 AM 3.2 °F -16.5 °F -9.4 °F 56% 30.25 in 10.0 mi West 17.3 mph 24.2 mph N/A   Clear
10:55 AM 3.2 °F -15.9 °F -9.4 °F 56% 30.24 in 10.0 mi WNW 16.1 mph 21.9 mph N/A   Clear
11:15 AM 3.2 °F -15.9 °F -9.4 °F 56% 30.24 in 10.0 mi West 16.1 mph 25.3 mph N/A   Clear
11:35 AM 3.2 °F -15.3 °F -11.2 °F 51% 30.24 in 10.0 mi WNW 15.0 mph - N/A   Clear
11:55 AM 3.2 °F -18.1 °F -9.4 °F 56% 30.24 in 10.0 mi West 20.7 mph 27.6 mph N/A   Clear
12:15 PM 3.2 °F -17.1 °F -9.4 °F 56% 30.23 in 10.0 mi WNW 18.4 mph 25.3 mph N/A   Clear
12:35 PM 5.0 °F -14.7 °F -9.4 °F 52% 30.22 in 10.0 mi WNW 18.4 mph 25.3 mph N/A   Clear
12:55 PM 5.0 °F -15.2 °F -9.4 °F 52% 30.22 in 10.0 mi West 19.6 mph 28.8 mph N/A   Clear
1:15 PM 5.0 °F -14.2 °F -9.4 °F 52% 30.21 in 10.0 mi West 17.3 mph 27.6 mph N/A   Scattered Clouds
1:35 PM 5.0 °F -17.1 °F -9.4 °F 52% 30.21 in 10.0 mi West 24.2 mph 27.6 mph N/A   Clear
1:55 PM 5.0 °F -13.6 °F -9.4 °F 52% 30.21 in 10.0 mi West 16.1 mph - N/A   Clear
2:15 PM 5.0 °F -15.7 °F -7.6 °F 56% 30.21 in 10.0 mi West 20.7 mph 26.5 mph N/A   Clear
2:35 PM 5.0 °F -14.7 °F -9.4 °F 52% 30.21 in 10.0 mi West 18.4 mph 25.3 mph N/A   Clear
2:55 PM 5.0 °F -14.2 °F -9.4 °F 52% 30.21 in 10.0 mi West 17.3 mph 27.6 mph N/A   Scattered Clouds
3:15 PM 5.0 °F -11.6 °F -7.6 °F 56% 30.21 in 10.0 mi WNW 12.7 mph 24.2 mph N/A   Scattered Clouds
3:35 PM 5.0 °F -14.7 °F -9.4 °F 52% 30.21 in 10.0 mi WNW 18.4 mph 24.2 mph N/A   Clear
3:55 PM 5.0 °F -14.2 °F -9.4 °F 52% 30.21 in 10.0 mi West 17.3 mph 24.2 mph N/A   Clear
4:15 PM 5.0 °F -13.6 °F -7.6 °F 56% 30.21 in 10.0 mi West 16.1 mph - N/A   Clear
4:35 PM 3.2 °F -14.6 °F -7.6 °F 61% 30.22 in 10.0 mi West 13.8 mph - N/A   Clear
4:55 PM 3.2 °F -14.6 °F -7.6 °F 61% 30.22 in 10.0 mi West 13.8 mph 25.3 mph N/A   Scattered Clouds
5:15 PM 3.2 °F -13.1 °F -7.6 °F 61% 30.22 in 10.0 mi West 11.5 mph - N/A   Scattered Clouds
5:35 PM 3.2 °F -15.9 °F -7.6 °F 61% 30.22 in 10.0 mi West 16.1 mph - N/A   Clear
5:55 PM 3.2 °F -13.9 °F -7.6 °F 61% 30.22 in 10.0 mi West 12.7 mph 18.4 mph N/A   Clear
6:15 PM 3.2 °F -13.9 °F -7.6 °F 61% 30.22 in 10.0 mi West 12.7 mph 20.7 mph N/A   Clear
6:35 PM 3.2 °F -14.6 °F -7.6 °F 61% 30.23 in 10.0 mi West 13.8 mph 19.6 mph N/A   Clear
6:55 PM 3.2 °F -14.6 °F -7.6 °F 61% 30.23 in 10.0 mi West 13.8 mph - N/A   Clear
7:15 PM 3.2 °F -13.1 °F -7.6 °F 61% 30.24 in 10.0 mi West 11.5 mph - N/A   Clear
7:35 PM 3.2 °F -15.9 °F -7.6 °F 61% 30.24 in 10.0 mi West 16.1 mph - N/A   Clear
7:55 PM 3.2 °F -13.9 °F -7.6 °F 61% 30.24 in 10.0 mi West 12.7 mph 19.6 mph N/A   Clear
8:15 PM 3.2 °F -14.6 °F -7.6 °F 61% 30.23 in 10.0 mi West 13.8 mph - N/A   Clear
8:35 PM 3.2 °F -13.1 °F -7.6 °F 61% 30.24 in 10.0 mi West 11.5 mph - N/A   Clear
8:55 PM 3.2 °F -13.9 °F -7.6 °F 61% 30.24 in 10.0 mi WNW 12.7 mph - N/A   Clear
9:15 PM 1.4 °F -16.1 °F -7.6 °F 66% 30.25 in 10.0 mi West 12.7 mph 18.4 mph N/A   Clear
9:35 PM 1.4 °F -13.5 °F -7.6 °F 66% 30.25 in 10.0 mi West 9.2 mph - N/A   Clear
9:55 PM 1.4 °F -13.5 °F -7.6 °F 66% 30.26 in 10.0 mi WNW 9.2 mph - N/A   Clear
10:15 PM 1.4 °F -15.3 °F -7.6 °F 66% 30.26 in 10.0 mi West 11.5 mph 19.6 mph N/A   Clear
10:35 PM 1.4 °F -16.1 °F -7.6 °F 66% 30.27 in 10.0 mi WNW 12.7 mph 17.3 mph N/A   Clear
10:55 PM 1.4 °F -16.1 °F -7.6 °F 66% 30.28 in 10.0 mi WNW 12.7 mph 17.3 mph N/A   Clear
11:15 PM 1.4 °F -16.1 °F -7.6 °F 66% 30.28 in 10.0 mi WNW 12.7 mph - N/A   Scattered Clouds
11:35 PM 1.4 °F -14.5 °F -9.4 °F 61% 30.28 in 10.0 mi WNW 10.4 mph 16.1 mph N/A   Scattered Clouds
11:55 PM -0.4 °F -17.6 °F -9.4 °F 66% 30.28 in 10.0 mi WNW 11.5 mph 18.4 mph N/A   Clear